Time,TemperatureF,DewpointF,PressureIn,WindDirection,WindDirectionDegrees,WindSpeedMPH,WindSpeedGustMPH,Humidity,HourlyPrecipIn,Conditions,Clouds,dailyrainin,SoftwareType,DateUTC
2013-06-03 00:00:00,70.7,69.8,29.81,West,270,0.0,0.0,97,0.01,,---,0.08,VWS V14.01,2013-06-03 04:00:00,
2013-06-03 00:01:00,70.7,69.8,29.81,West,271,0.0,0.0,97,0.01,,---,0.08,VWS V14.01,2013-06-03 04:01:00,
2013-06-03 00:06:00,70.7,69.8,29.81,West,269,0.0,0.0,97,0.00,,---,0.00,VWS V14.01,2013-06-03 04:06:00,
2013-06-03 00:11:00,70.7,70.1,29.82,West,270,0.0,0.0,98,0.00,,---,0.00,VWS V14.01,2013-06-03 04:11:00,
2013-06-03 00:16:00,70.7,69.8,29.81,West,270,0.0,0.0,97,0.00,,---,0.00,VWS V14.01,2013-06-03 04:16:00,
2013-06-03 00:21:00,70.7,69.8,29.82,West,270,0.0,0.0,97,0.00,,---,0.00,VWS V14.01,2013-06-03 04:21:00,
2013-06-03 00:26:00,70.7,70.1,29.82,West,270,0.0,0.0,98,0.00,,---,0.00,VWS V14.01,2013-06-03 04:26:00,
2013-06-03 00:31:00,70.8,70.2,29.82,West,270,0.0,0.0,98,0.01,,---,0.01,VWS V14.01,2013-06-03 04:31:00,
2013-06-03 00:36:00,70.8,70.2,29.82,West,269,0.0,0.0,98,0.01,,---,0.01,VWS V14.01,2013-06-03 04:36:00,
2013-06-03 00:41:00,70.8,70.2,29.81,West,269,0.0,0.0,98,0.01,,---,0.01,VWS V14.01,2013-06-03 04:41:00,
2013-06-03 00:46:00,70.8,70.2,29.81,West,278,0.0,0.0,98,0.01,,---,0.01,VWS V14.01,2013-06-03 04:46:00,
2013-06-03 00:51:00,70.9,70.3,29.81,West,278,0.0,0.0,98,0.01,,---,0.01,VWS V14.01,2013-06-03 04:51:00,
2013-06-03 00:56:00,70.9,70.3,29.81,West,278,0.0,0.0,98,0.01,,---,0.01,VWS V14.01,2013-06-03 04:56:00,
2013-06-03 01:01:00,70.9,70.3,29.81,West,278,0.0,0.0,98,0.02,,---,0.02,VWS V14.01,2013-06-03 05:01:00,
2013-06-03 01:06:00,71.0,70.4,29.81,West,278,0.0,0.0,98,0.02,,---,0.02,VWS V14.01,2013-06-03 05:06:00,
2013-06-03 01:11:00,71.0,70.4,29.80,West,278,0.0,0.0,98,0.02,,---,0.02,VWS V14.01,2013-06-03 05:11:00,
2013-06-03 01:16:00,71.0,70.4,29.81,West,278,0.0,0.0,98,0.02,,---,0.02,VWS V14.01,2013-06-03 05:16:00,
2013-06-03 01:21:00,70.9,70.3,29.81,West,266,0.0,0.0,98,0.02,,---,0.02,VWS V14.01,2013-06-03 05:21:00,
2013-06-03 01:27:00,70.9,70.3,29.81,West,265,0.0,0.0,98,0.02,,---,0.02,VWS V14.01,2013-06-03 05:27:00,
2013-06-03 01:32:00,70.9,70.3,29.81,West,266,0.0,0.0,98,0.01,,---,0.02,VWS V14.01,2013-06-03 05:32:00,
2013-06-03 01:37:00,70.9,70.3,29.81,West,266,0.0,0.0,98,0.01,,---,0.02,VWS V14.01,2013-06-03 05:37:00,
2013-06-03 01:42:00,70.7,70.1,29.81,West,264,0.0,0.0,98,0.01,,---,0.02,VWS V14.01,2013-06-03 05:42:00,
2013-06-03 01:47:00,70.7,70.1,29.81,West,264,0.0,0.0,98,0.01,,---,0.02,VWS V14.01,2013-06-03 05:47:00,
2013-06-03 01:52:00,70.7,70.1,29.81,West,264,0.0,0.0,98,0.01,,---,0.02,VWS V14.01,2013-06-03 05:52:00,
2013-06-03 01:57:00,70.5,69.9,29.81,West,264,0.0,0.0,98,0.01,,---,0.02,VWS V14.01,2013-06-03 05:57:00,
2013-06-03 02:02:00,70.5,69.9,29.82,West,264,0.0,0.0,98,0.00,,---,0.02,VWS V14.01,2013-06-03 06:02:00,
2013-06-03 02:07:00,70.5,69.9,29.82,West,264,0.0,0.0,98,0.00,,---,0.02,VWS V14.01,2013-06-03 06:07:00,
2013-06-03 02:12:00,70.5,69.9,29.82,West,264,0.0,0.0,98,0.00,,---,0.02,VWS V14.01,2013-06-03 06:12:00,
2013-06-03 02:17:00,70.4,69.8,29.82,West,264,0.0,0.0,98,0.00,,---,0.02,VWS V14.01,2013-06-03 06:17:00,
2013-06-03 02:22:00,70.4,69.8,29.82,West,264,0.0,0.0,98,0.00,,---,0.02,VWS V14.01,2013-06-03 06:22:00,
2013-06-03 02:27:00,70.3,69.7,29.82,West,264,0.0,0.0,98,0.00,,---,0.02,VWS V14.01,2013-06-03 06:27:00,
2013-06-03 02:32:00,70.2,69.6,29.82,West,264,0.0,0.0,98,0.00,,---,0.02,VWS V14.01,2013-06-03 06:32:00,
2013-06-03 02:37:00,70.1,69.5,29.82,West,264,0.0,0.0,98,0.00,,---,0.02,VWS V14.01,2013-06-03 06:37:00,
2013-06-03 02:42:00,70.0,69.4,29.83,West,264,0.0,0.0,98,0.00,,---,0.02,VWS V14.01,2013-06-03 06:42:00,
2013-06-03 02:47:00,69.9,69.3,29.82,West,264,0.0,0.0,98,0.00,,---,0.02,VWS V14.01,2013-06-03 06:47:00,
2013-06-03 02:52:00,69.9,69.3,29.82,West,264,0.0,0.0,98,0.00,,---,0.02,VWS V14.01,2013-06-03 06:52:00,
2013-06-03 02:57:00,69.9,69.3,29.82,West,264,0.0,0.0,98,0.00,,---,0.02,VWS V14.01,2013-06-03 06:57:00,
2013-06-03 03:02:00,70.0,69.4,29.82,West,264,0.0,0.0,98,0.00,,---,0.02,VWS V14.01,2013-06-03 07:02:00,
2013-06-03 03:07:00,70.1,69.5,29.82,West,264,0.0,0.0,98,0.00,,---,0.02,VWS V14.01,2013-06-03 07:07:00,
2013-06-03 03:12:00,70.0,69.4,29.82,West,266,0.0,0.0,98,0.00,,---,0.02,VWS V14.01,2013-06-03 07:12:00,
2013-06-03 03:17:00,70.0,69.4,29.82,West,265,0.0,0.0,98,0.00,,---,0.02,VWS V14.01,2013-06-03 07:17:00,
2013-06-03 03:22:00,69.9,69.3,29.82,West,266,0.0,0.0,98,0.01,,---,0.03,VWS V14.01,2013-06-03 07:22:00,
2013-06-03 03:27:00,69.9,69.3,29.82,West,260,0.0,0.0,98,0.01,,---,0.03,VWS V14.01,2013-06-03 07:27:00,
2013-06-03 03:32:00,69.9,69.3,29.82,West,274,0.0,0.0,98,0.01,,---,0.03,VWS V14.01,2013-06-03 07:32:00,
2013-06-03 03:37:00,69.8,69.2,29.82,WSW,252,0.0,1.0,98,0.01,,---,0.03,VWS V14.01,2013-06-03 07:37:00,
2013-06-03 03:42:00,69.6,68.7,29.82,West,274,3.0,3.0,97,0.01,,---,0.03,VWS V14.01,2013-06-03 07:42:00,
2013-06-03 03:47:00,69.4,68.5,29.82,WNW,295,0.0,3.0,97,0.02,,---,0.04,VWS V14.01,2013-06-03 07:47:00,
2013-06-03 03:52:00,69.2,68.3,29.82,West,271,2.0,3.0,97,0.02,,---,0.04,VWS V14.01,2013-06-03 07:52:00,
2013-06-03 03:57:00,69.0,68.1,29.82,West,266,0.0,3.0,97,0.02,,---,0.04,VWS V14.01,2013-06-03 07:57:00,
2013-06-03 04:02:00,68.9,68.0,29.81,West,265,0.0,0.0,97,0.03,,---,0.05,VWS V14.01,2013-06-03 08:02:00,
2013-06-03 04:07:00,68.9,68.0,29.81,West,266,0.0,0.0,97,0.03,,---,0.05,VWS V14.01,2013-06-03 08:07:00,
2013-06-03 04:12:00,68.8,67.9,29.81,West,266,0.0,0.0,97,0.03,,---,0.05,VWS V14.01,2013-06-03 08:12:00,
2013-06-03 04:17:00,68.7,67.8,29.81,West,266,0.0,0.0,97,0.03,,---,0.05,VWS V14.01,2013-06-03 08:17:00,
2013-06-03 04:22:00,68.7,67.8,29.81,West,265,0.0,0.0,97,0.03,,---,0.05,VWS V14.01,2013-06-03 08:22:00,
2013-06-03 04:27:00,68.7,67.8,29.80,West,266,0.0,0.0,97,0.03,,---,0.05,VWS V14.01,2013-06-03 08:27:00,
2013-06-03 04:32:00,68.6,67.7,29.81,West,266,0.0,0.0,97,0.02,,---,0.05,VWS V14.01,2013-06-03 08:32:00,
2013-06-03 04:37:00,68.6,67.7,29.81,West,266,0.0,0.0,97,0.02,,---,0.05,VWS V14.01,2013-06-03 08:37:00,
2013-06-03 04:42:00,68.6,67.7,29.80,West,264,0.0,0.0,97,0.02,,---,0.05,VWS V14.01,2013-06-03 08:42:00,
2013-06-03 04:47:00,68.5,67.6,29.80,West,264,0.0,0.0,97,0.02,,---,0.05,VWS V14.01,2013-06-03 08:47:00,
2013-06-03 04:52:00,68.5,67.6,29.80,West,264,0.0,0.0,97,0.02,,---,0.05,VWS V14.01,2013-06-03 08:52:00,
2013-06-03 04:57:00,68.5,67.9,29.80,West,264,0.0,0.0,98,0.02,,---,0.05,VWS V14.01,2013-06-03 08:57:00,
2013-06-03 05:02:00,68.5,67.6,29.80,West,264,0.0,0.0,97,0.00,,---,0.05,VWS V14.01,2013-06-03 09:02:00,
2013-06-03 05:07:00,68.5,67.6,29.80,West,264,0.0,0.0,97,0.00,,---,0.05,VWS V14.01,2013-06-03 09:07:00,
2013-06-03 05:12:00,68.4,67.5,29.80,West,264,0.0,0.0,97,0.00,,---,0.05,VWS V14.01,2013-06-03 09:12:00,
2013-06-03 05:17:00,68.4,67.5,29.80,West,264,0.0,0.0,97,0.01,,---,0.06,VWS V14.01,2013-06-03 09:17:00,
2013-06-03 05:22:00,68.4,67.8,29.80,West,264,0.0,0.0,98,0.01,,---,0.06,VWS V14.01,2013-06-03 09:22:00,
2013-06-03 05:27:00,68.4,67.8,29.80,West,264,0.0,0.0,98,0.02,,---,0.07,VWS V14.01,2013-06-03 09:27:00,
2013-06-03 05:32:00,68.3,67.7,29.80,West,264,0.0,0.0,98,0.02,,---,0.07,VWS V14.01,2013-06-03 09:32:00,
2013-06-03 05:37:00,68.3,67.7,29.80,West,264,0.0,0.0,98,0.02,,---,0.07,VWS V14.01,2013-06-03 09:37:00,
2013-06-03 05:42:00,68.3,67.7,29.81,West,264,0.0,0.0,98,0.02,,---,0.07,VWS V14.01,2013-06-03 09:42:00,
2013-06-03 05:47:00,68.4,67.8,29.81,West,264,0.0,0.0,98,0.02,,---,0.07,VWS V14.01,2013-06-03 09:47:00,
2013-06-03 05:52:00,68.4,67.8,29.81,West,264,0.0,0.0,98,0.03,,---,0.08,VWS V14.01,2013-06-03 09:52:00,
2013-06-03 05:57:00,68.5,67.9,29.81,West,264,0.0,0.0,98,0.03,,---,0.08,VWS V14.01,2013-06-03 09:57:00,
2013-06-03 06:02:00,68.5,67.9,29.81,West,264,0.0,0.0,98,0.03,,---,0.08,VWS V14.01,2013-06-03 10:02:00,
2013-06-03 06:07:00,68.6,68.0,29.81,West,264,0.0,0.0,98,0.03,,---,0.08,VWS V14.01,2013-06-03 10:07:00,
2013-06-03 06:12:00,68.5,67.9,29.81,West,264,0.0,0.0,98,0.03,,---,0.08,VWS V14.01,2013-06-03 10:12:00,
2013-06-03 06:17:00,68.5,67.9,29.82,West,264,0.0,0.0,98,0.03,,---,0.08,VWS V14.01,2013-06-03 10:17:00,
2013-06-03 06:22:00,68.5,67.9,29.82,West,264,0.0,0.0,98,0.03,,---,0.08,VWS V14.01,2013-06-03 10:22:00,
2013-06-03 06:27:00,68.5,67.9,29.82,West,263,0.0,0.0,98,0.03,,---,0.08,VWS V14.01,2013-06-03 10:27:00,
2013-06-03 06:32:00,68.5,67.9,29.82,West,263,0.0,0.0,98,0.03,,---,0.10,VWS V14.01,2013-06-03 10:32:00,
2013-06-03 06:37:00,68.5,67.9,29.82,West,263,0.0,0.0,98,0.06,,---,0.13,VWS V14.01,2013-06-03 10:37:00,
2013-06-03 06:42:00,68.5,67.9,29.82,ESE,122,0.0,0.0,98,0.08,,---,0.15,VWS V14.01,2013-06-03 10:42:00,
2013-06-03 06:47:00,68.5,67.9,29.82,West,263,0.0,1.0,98,0.09,,---,0.16,VWS V14.01,2013-06-03 10:47:00,
2013-06-03 06:52:00,68.5,67.9,29.82,WNW,291,0.0,1.0,98,0.10,,---,0.17,VWS V14.01,2013-06-03 10:52:00,
2013-06-03 06:57:00,68.5,67.9,29.82,West,271,0.0,1.0,98,0.10,,---,0.17,VWS V14.01,2013-06-03 10:57:00,
2013-06-03 07:02:00,68.4,67.8,29.82,West,266,1.0,2.0,98,0.09,,---,0.17,VWS V14.01,2013-06-03 11:02:00,
2013-06-03 07:07:00,68.3,67.4,29.83,WNW,292,1.0,3.0,97,0.10,,---,0.18,VWS V14.01,2013-06-03 11:07:00,
2013-06-03 07:12:00,68.2,67.3,29.82,NNW,340,0.0,3.0,97,0.10,,---,0.18,VWS V14.01,2013-06-03 11:12:00,
2013-06-03 07:17:00,68.0,67.1,29.83,NNW,340,0.0,3.0,97,0.10,,---,0.18,VWS V14.01,2013-06-03 11:17:00,
2013-06-03 07:22:00,68.1,67.2,29.83,NNW,340,0.0,3.0,97,0.10,,---,0.18,VWS V14.01,2013-06-03 11:22:00,
2013-06-03 07:27:00,68.1,67.2,29.83,NNW,340,0.0,3.0,97,0.10,,---,0.18,VWS V14.01,2013-06-03 11:27:00,
2013-06-03 07:32:00,68.0,67.1,29.83,NNW,340,0.0,0.0,97,0.09,,---,0.18,VWS V14.01,2013-06-03 11:32:00,
2013-06-03 07:37:00,68.0,67.1,29.83,NNW,340,0.0,0.0,97,0.10,,---,0.19,VWS V14.01,2013-06-03 11:37:00,
2013-06-03 07:42:00,68.0,67.1,29.83,NNW,340,0.0,0.0,97,0.10,,---,0.19,VWS V14.01,2013-06-03 11:42:00,
2013-06-03 07:47:00,67.8,66.9,29.83,NNW,340,0.0,0.0,97,0.10,,---,0.19,VWS V14.01,2013-06-03 11:47:00,
2013-06-03 07:52:00,67.8,66.9,29.83,NNW,340,0.0,0.0,97,0.11,,---,0.20,VWS V14.01,2013-06-03 11:52:00,
2013-06-03 07:57:00,67.7,66.8,29.83,North,10,0.0,0.0,97,0.11,,---,0.20,VWS V14.01,2013-06-03 11:57:00,
2013-06-03 08:02:00,67.5,66.6,29.83,SE,145,0.0,1.0,97,0.03,,---,0.20,VWS V14.01,2013-06-03 12:02:00,
2013-06-03 08:07:00,67.5,66.6,29.83,SE,143,0.0,1.0,97,0.03,,---,0.20,VWS V14.01,2013-06-03 12:07:00,
2013-06-03 08:12:00,67.6,66.7,29.83,SE,143,0.0,1.0,97,0.03,,---,0.20,VWS V14.01,2013-06-03 12:12:00,
2013-06-03 08:17:00,67.8,66.9,29.83,SE,145,0.0,1.0,97,0.03,,---,0.20,VWS V14.01,2013-06-03 12:17:00,
2013-06-03 08:22:00,67.8,66.9,29.83,SE,146,0.0,1.0,97,0.03,,---,0.20,VWS V14.01,2013-06-03 12:22:00,
2013-06-03 08:27:00,67.7,66.8,29.83,SE,145,0.0,1.0,97,0.03,,---,0.20,VWS V14.01,2013-06-03 12:27:00,
2013-06-03 08:32:00,67.9,67.0,29.83,SE,145,0.0,0.0,97,0.02,,---,0.20,VWS V14.01,2013-06-03 12:32:00,
2013-06-03 08:37:00,67.9,67.0,29.84,SE,146,0.0,0.0,97,0.02,,---,0.20,VWS V14.01,2013-06-03 12:37:00,
2013-06-03 08:42:00,68.1,67.2,29.84,SE,145,0.0,0.0,97,0.02,,---,0.20,VWS V14.01,2013-06-03 12:42:00,
2013-06-03 08:47:00,68.2,67.3,29.84,West,276,0.0,1.0,97,0.02,,---,0.20,VWS V14.01,2013-06-03 12:47:00,
2013-06-03 08:52:00,68.1,66.9,29.85,NW,316,0.0,2.0,96,0.02,,---,0.20,VWS V14.01,2013-06-03 12:52:00,
2013-06-03 08:57:00,68.3,67.4,29.85,WNW,290,1.0,2.0,97,0.02,,---,0.20,VWS V14.01,2013-06-03 12:57:00,
2013-06-03 09:02:00,68.3,67.4,29.85,WNW,288,0.0,0.0,97,0.00,,---,0.20,VWS V14.01,2013-06-03 13:02:00,
2013-06-03 09:07:00,68.4,67.5,29.85,WNW,302,0.0,1.0,97,0.00,,---,0.20,VWS V14.01,2013-06-03 13:07:00,
2013-06-03 09:12:00,68.2,67.0,29.85,WNW,302,0.0,1.0,96,0.00,,---,0.20,VWS V14.01,2013-06-03 13:12:00,
2013-06-03 09:17:00,68.1,66.9,29.85,WNW,302,0.0,1.0,96,0.00,,---,0.20,VWS V14.01,2013-06-03 13:17:00,
2013-06-03 09:22:00,68.1,66.9,29.86,WNW,296,0.0,1.0,96,0.00,,---,0.20,VWS V14.01,2013-06-03 13:22:00,
2013-06-03 09:27:00,68.1,66.9,29.86,WNW,297,0.0,1.0,96,0.00,,---,0.20,VWS V14.01,2013-06-03 13:27:00,
2013-06-03 09:32:00,68.3,67.1,29.85,WNW,297,0.0,0.0,96,0.00,,---,0.20,VWS V14.01,2013-06-03 13:32:00,
2013-06-03 09:37:00,68.3,67.1,29.85,WNW,296,0.0,0.0,96,0.00,,---,0.20,VWS V14.01,2013-06-03 13:37:00,
2013-06-03 09:42:00,68.6,67.7,29.85,WNW,297,0.0,0.0,97,0.00,,---,0.20,VWS V14.01,2013-06-03 13:42:00,
2013-06-03 09:47:00,68.9,68.0,29.85,WNW,297,0.0,0.0,97,0.00,,---,0.20,VWS V14.01,2013-06-03 13:47:00,
2013-06-03 09:52:00,68.7,67.5,29.85,WNW,297,0.0,0.0,96,0.00,,---,0.20,VWS V14.01,2013-06-03 13:52:00,
2013-06-03 09:57:00,68.7,67.5,29.85,WNW,297,0.0,0.0,96,0.00,,---,0.20,VWS V14.01,2013-06-03 13:57:00,
2013-06-03 10:02:00,68.9,67.7,29.85,WNW,297,0.0,0.0,96,0.00,,---,0.20,VWS V14.01,2013-06-03 14:02:00,
2013-06-03 10:07:00,68.9,67.4,29.84,WNW,297,0.0,0.0,95,0.00,,---,0.20,VWS V14.01,2013-06-03 14:07:00,
2013-06-03 10:12:00,69.2,67.7,29.84,WNW,297,0.0,0.0,95,0.00,,---,0.20,VWS V14.01,2013-06-03 14:12:00,
2013-06-03 10:17:00,69.4,67.9,29.84,WNW,296,0.0,0.0,95,0.00,,---,0.20,VWS V14.01,2013-06-03 14:17:00,
2013-06-03 10:22:00,69.5,68.0,29.84,North,9,0.0,0.0,95,0.00,,---,0.20,VWS V14.01,2013-06-03 14:22:00,
2013-06-03 10:27:00,69.5,67.7,29.84,North,9,0.0,0.0,94,0.00,,---,0.20,VWS V14.01,2013-06-03 14:27:00,
2013-06-03 10:32:00,69.4,67.3,29.84,NNE,27,0.0,0.0,93,0.00,,---,0.20,VWS V14.01,2013-06-03 14:32:00,
2013-06-03 10:37:00,69.3,66.9,29.84,NNE,27,0.0,0.0,92,0.00,,---,0.20,VWS V14.01,2013-06-03 14:37:00,
2013-06-03 10:42:00,69.6,67.2,29.84,NNE,27,0.0,0.0,92,0.00,,---,0.20,VWS V14.01,2013-06-03 14:42:00,
2013-06-03 10:47:00,70.0,67.6,29.84,NNE,27,0.0,0.0,92,0.00,,---,0.20,VWS V14.01,2013-06-03 14:47:00,
2013-06-03 10:52:00,70.4,68.0,29.84,NNE,27,0.0,0.0,92,0.00,,---,0.20,VWS V14.01,2013-06-03 14:52:00,
2013-06-03 10:57:00,70.9,67.5,29.84,NW,321,0.0,0.0,89,0.00,,---,0.20,VWS V14.01,2013-06-03 14:57:00,
2013-06-03 11:02:00,70.9,67.2,29.84,North,360,2.0,2.0,88,0.00,,---,0.20,VWS V14.01,2013-06-03 15:02:00,
2013-06-03 11:07:00,71.0,67.3,29.85,NNE,23,0.0,2.0,88,0.00,,---,0.20,VWS V14.01,2013-06-03 15:07:00,
2013-06-03 11:12:00,71.2,67.1,29.85,ENE,65,0.0,2.0,87,0.00,,---,0.20,VWS V14.01,2013-06-03 15:12:00,
2013-06-03 11:17:00,71.5,67.4,29.84,North,8,0.0,2.0,87,0.00,,---,0.20,VWS V14.01,2013-06-03 15:17:00,
2013-06-03 11:22:00,71.6,66.9,29.85,West,276,1.0,4.0,85,0.00,,---,0.20,VWS V14.01,2013-06-03 15:22:00,
2013-06-03 11:27:00,71.6,66.9,29.85,WNW,294,3.0,4.0,85,0.00,,---,0.20,VWS V14.01,2013-06-03 15:27:00,
2013-06-03 11:32:00,71.5,66.1,29.85,WNW,293,4.0,6.0,83,0.00,,---,0.20,VWS V14.01,2013-06-03 15:32:00,
2013-06-03 11:37:00,71.3,65.9,29.85,NNW,327,1.0,6.0,83,0.00,,---,0.20,VWS V14.01,2013-06-03 15:37:00,
2013-06-03 11:42:00,71.4,65.6,29.85,West,266,0.0,6.0,82,0.00,,---,0.20,VWS V14.01,2013-06-03 15:42:00,
2013-06-03 11:47:00,71.7,65.9,29.85,NE,37,0.0,6.0,82,0.00,,---,0.20,VWS V14.01,2013-06-03 15:47:00,
2013-06-03 11:52:00,72.2,65.7,29.85,NNW,333,0.0,6.0,80,0.00,,---,0.20,VWS V14.01,2013-06-03 15:52:00,
2013-06-03 11:57:00,73.0,65.7,29.85,West,260,1.0,6.0,78,0.00,,---,0.20,VWS V14.01,2013-06-03 15:57:00,
2013-06-03 12:02:00,73.7,65.3,29.85,NNE,13,1.0,3.0,75,0.00,,---,0.20,VWS V14.01,2013-06-03 16:02:00,
2013-06-03 12:07:00,74.2,64.6,29.85,West,266,1.0,3.0,72,0.00,,---,0.20,VWS V14.01,2013-06-03 16:07:00,
2013-06-03 12:12:00,74.9,66.4,29.84,NNE,23,0.0,3.0,75,0.00,,---,0.20,VWS V14.01,2013-06-03 16:12:00,
2013-06-03 12:17:00,75.3,66.8,29.84,NNE,26,0.0,3.0,75,0.00,,---,0.20,VWS V14.01,2013-06-03 16:17:00,
2013-06-03 12:22:00,75.7,67.6,29.84,NE,41,0.0,3.0,76,0.00,,---,0.20,VWS V14.01,2013-06-03 16:22:00,
2013-06-03 12:27:00,75.8,66.5,29.84,NE,41,0.0,3.0,73,0.00,,---,0.20,VWS V14.01,2013-06-03 16:27:00,
2013-06-03 12:32:00,76.4,66.3,29.83,SSW,195,1.0,1.0,71,0.00,,---,0.20,VWS V14.01,2013-06-03 16:32:00,
2013-06-03 12:37:00,76.6,66.9,29.84,SSW,195,0.0,2.0,72,0.00,,---,0.20,VWS V14.01,2013-06-03 16:37:00,
2013-06-03 12:42:00,76.6,66.9,29.83,SSW,195,0.0,2.0,72,0.00,,---,0.20,VWS V14.01,2013-06-03 16:42:00,
2013-06-03 12:47:00,76.0,64.3,29.83,SE,134,0.0,2.0,67,0.00,,---,0.20,VWS V14.01,2013-06-03 16:47:00,
2013-06-03 12:52:00,75.9,65.8,29.83,North,352,1.0,2.0,71,0.00,,---,0.20,VWS V14.01,2013-06-03 16:52:00,
2013-06-03 12:57:00,75.7,66.0,29.83,North,352,0.0,2.0,72,0.00,,---,0.20,VWS V14.01,2013-06-03 16:57:00,
2013-06-03 13:02:00,76.2,66.1,29.83,NNW,345,0.0,0.0,71,0.00,,---,0.20,VWS V14.01,2013-06-03 17:02:00,
2013-06-03 13:07:00,76.5,65.6,29.83,NNW,345,0.0,1.0,69,0.00,,---,0.20,VWS V14.01,2013-06-03 17:07:00,
2013-06-03 13:12:00,76.3,65.8,29.83,NNW,346,0.0,1.0,70,0.00,,---,0.20,VWS V14.01,2013-06-03 17:12:00,
2013-06-03 13:17:00,76.4,65.5,29.83,NNW,342,0.0,1.0,69,0.00,,---,0.20,VWS V14.01,2013-06-03 17:17:00,
2013-06-03 13:22:00,76.9,66.0,29.83,West,266,0.0,1.0,69,0.00,,---,0.20,VWS V14.01,2013-06-03 17:22:00,
2013-06-03 13:27:00,77.9,65.6,29.82,ESE,118,0.0,2.0,66,0.00,,---,0.20,VWS V14.01,2013-06-03 17:27:00,
2013-06-03 13:32:00,78.2,64.6,29.82,ENE,76,0.0,0.0,63,0.00,,---,0.20,VWS V14.01,2013-06-03 17:32:00,
2013-06-03 13:37:00,78.6,64.5,29.82,South,190,1.0,1.0,62,0.00,,---,0.20,VWS V14.01,2013-06-03 17:37:00,
2013-06-03 13:42:00,78.4,65.7,29.82,South,190,1.0,1.0,65,0.00,,---,0.20,VWS V14.01,2013-06-03 17:42:00,
2013-06-03 13:47:00,78.5,64.4,29.82,West,268,0.0,3.0,62,0.00,,---,0.20,VWS V14.01,2013-06-03 17:47:00,
2013-06-03 13:52:00,78.5,63.5,29.82,NW,316,3.0,4.0,60,0.00,,---,0.20,VWS V14.01,2013-06-03 17:52:00,
2013-06-03 13:57:00,77.5,63.5,29.82,North,5,1.0,4.0,62,0.00,,---,0.20,VWS V14.01,2013-06-03 17:57:00,
2013-06-03 14:02:00,77.1,64.0,29.82,North,5,0.0,0.0,64,0.00,,---,0.20,VWS V14.01,2013-06-03 18:02:00,
2013-06-03 14:07:00,76.9,64.7,29.82,North,5,0.0,0.0,66,0.00,,---,0.20,VWS V14.01,2013-06-03 18:07:00,
2013-06-03 14:12:00,76.8,64.2,29.82,NNW,348,1.0,2.0,65,0.00,,---,0.20,VWS V14.01,2013-06-03 18:12:00,
2013-06-03 14:17:00,77.1,65.3,29.82,NW,316,0.0,3.0,67,0.00,,---,0.20,VWS V14.01,2013-06-03 18:17:00,
2013-06-03 14:22:00,77.9,65.2,29.82,ESE,105,4.0,4.0,65,0.00,,---,0.20,VWS V14.01,2013-06-03 18:22:00,
2013-06-03 14:27:00,78.8,65.2,29.82,NNE,33,0.0,4.0,63,0.00,,---,0.20,VWS V14.01,2013-06-03 18:27:00,
2013-06-03 14:32:00,80.0,64.9,29.82,SE,124,1.0,1.0,60,0.00,,---,0.20,VWS V14.01,2013-06-03 18:32:00,
2013-06-03 14:37:00,80.2,65.1,29.82,NNW,345,2.0,4.0,60,0.00,,---,0.20,VWS V14.01,2013-06-03 18:37:00,
2013-06-03 14:42:00,78.8,64.7,29.82,NNE,16,1.0,4.0,62,0.00,,---,0.20,VWS V14.01,2013-06-03 18:42:00,
2013-06-03 14:47:00,77.6,64.5,29.82,North,8,2.0,4.0,64,0.00,,---,0.20,VWS V14.01,2013-06-03 18:47:00,
2013-06-03 14:52:00,77.2,65.0,29.82,North,349,0.0,4.0,66,0.00,,---,0.20,VWS V14.01,2013-06-03 18:52:00,
2013-06-03 14:57:00,77.7,64.6,29.82,North,349,0.0,4.0,64,0.00,,---,0.20,VWS V14.01,2013-06-03 18:57:00,
2013-06-03 15:02:00,78.2,65.0,29.82,SE,132,0.0,2.0,64,0.00,,---,0.20,VWS V14.01,2013-06-03 19:02:00,
2013-06-03 15:07:00,78.3,64.2,29.82,SE,132,0.0,2.0,62,0.00,,---,0.20,VWS V14.01,2013-06-03 19:07:00,
2013-06-03 15:12:00,78.0,64.4,29.82,ENE,61,0.0,2.0,63,0.00,,---,0.20,VWS V14.01,2013-06-03 19:12:00,
2013-06-03 15:17:00,77.7,64.1,29.82,ENE,60,0.0,2.0,63,0.00,,---,0.20,VWS V14.01,2013-06-03 19:17:00,
2013-06-03 15:22:00,77.4,63.8,29.82,NW,307,2.0,3.0,63,0.00,,---,0.20,VWS V14.01,2013-06-03 19:22:00,
2013-06-03 15:27:00,76.9,64.2,29.82,NNE,13,1.0,3.0,65,0.00,,---,0.20,VWS V14.01,2013-06-03 19:27:00,
2013-06-03 15:32:00,76.6,64.4,29.82,North,359,1.0,1.0,66,0.00,,---,0.20,VWS V14.01,2013-06-03 19:32:00,
2013-06-03 15:37:00,76.4,64.2,29.82,North,357,0.0,1.0,66,0.00,,---,0.20,VWS V14.01,2013-06-03 19:37:00,
2013-06-03 15:42:00,76.2,63.6,29.82,North,360,1.0,3.0,65,0.00,,---,0.20,VWS V14.01,2013-06-03 19:42:00,
2013-06-03 15:47:00,75.9,63.7,29.82,North,350,2.0,3.0,66,0.00,,---,0.20,VWS V14.01,2013-06-03 19:47:00,
2013-06-03 15:52:00,75.7,64.0,29.82,NW,326,1.0,3.0,67,0.00,,---,0.20,VWS V14.01,2013-06-03 19:52:00,
2013-06-03 15:57:00,75.5,63.8,29.82,NNW,342,0.0,3.0,67,0.00,,---,0.20,VWS V14.01,2013-06-03 19:57:00,
2013-06-03 16:02:00,75.4,64.1,29.81,NNW,342,0.0,1.0,68,0.00,,---,0.20,VWS V14.01,2013-06-03 20:02:00,
2013-06-03 16:07:00,75.3,64.8,29.81,North,349,0.0,1.0,70,0.00,,---,0.20,VWS V14.01,2013-06-03 20:07:00,
2013-06-03 16:12:00,75.2,64.3,29.81,NNW,347,0.0,2.0,69,0.00,,---,0.20,VWS V14.01,2013-06-03 20:12:00,
2013-06-03 16:17:00,75.0,64.2,29.81,WNW,284,0.0,2.0,69,0.00,,---,0.20,VWS V14.01,2013-06-03 20:17:00,
2013-06-03 16:22:00,74.9,64.1,29.82,WNW,284,0.0,2.0,69,0.00,,---,0.20,VWS V14.01,2013-06-03 20:22:00,
2013-06-03 16:27:00,74.7,64.7,29.82,WNW,284,0.0,2.0,71,0.00,,---,0.20,VWS V14.01,2013-06-03 20:27:00,
2013-06-03 16:32:00,74.5,64.1,29.82,NW,325,0.0,0.0,70,0.00,,---,0.20,VWS V14.01,2013-06-03 20:32:00,
2013-06-03 16:37:00,74.4,64.4,29.82,NW,325,0.0,0.0,71,0.00,,---,0.20,VWS V14.01,2013-06-03 20:37:00,
2013-06-03 16:42:00,74.2,65.0,29.82,NW,326,0.0,0.0,73,0.00,,---,0.20,VWS V14.01,2013-06-03 20:42:00,
2013-06-03 16:47:00,74.0,64.4,29.81,NW,326,0.0,0.0,72,0.00,,---,0.20,VWS V14.01,2013-06-03 20:47:00,
2013-06-03 16:52:00,74.0,64.4,29.81,NW,326,0.0,0.0,72,0.00,,---,0.20,VWS V14.01,2013-06-03 20:52:00,
2013-06-03 16:57:00,74.0,65.2,29.81,NW,326,0.0,0.0,74,0.00,,---,0.20,VWS V14.01,2013-06-03 20:57:00,
2013-06-03 17:02:00,73.9,65.5,29.81,NW,326,0.0,0.0,75,0.00,,---,0.20,VWS V14.01,2013-06-03 21:02:00,
2013-06-03 17:07:00,73.8,65.4,29.81,North,1,0.0,0.0,75,0.00,,---,0.20,VWS V14.01,2013-06-03 21:07:00,
2013-06-03 17:12:00,73.7,64.9,29.81,NW,323,0.0,2.0,74,0.00,,---,0.20,VWS V14.01,2013-06-03 21:12:00,
2013-06-03 17:17:00,73.6,64.4,29.81,WNW,302,1.0,2.0,73,0.00,,---,0.20,VWS V14.01,2013-06-03 21:17:00,
2013-06-03 17:22:00,73.6,63.6,29.81,NNW,335,1.0,2.0,71,0.00,,---,0.20,VWS V14.01,2013-06-03 21:22:00,
2013-06-03 17:27:00,73.5,63.5,29.81,North,352,0.0,2.0,71,0.00,,---,0.20,VWS V14.01,2013-06-03 21:27:00,
2013-06-03 17:32:00,73.6,63.6,29.81,North,359,0.0,0.0,71,0.00,,---,0.20,VWS V14.01,2013-06-03 21:32:00,
2013-06-03 17:37:00,73.6,64.0,29.81,North,359,0.0,1.0,72,0.00,,---,0.20,VWS V14.01,2013-06-03 21:37:00,
2013-06-03 17:42:00,73.7,64.1,29.81,North,3,0.0,1.0,72,0.00,,---,0.20,VWS V14.01,2013-06-03 21:42:00,
2013-06-03 17:47:00,73.7,63.3,29.80,ENE,61,0.0,1.0,70,0.00,,---,0.20,VWS V14.01,2013-06-03 21:47:00,
2013-06-03 17:52:00,74.1,64.1,29.80,ENE,61,0.0,1.0,71,0.00,,---,0.20,VWS V14.01,2013-06-03 21:52:00,
2013-06-03 17:57:00,74.2,63.4,29.81,ENE,61,0.0,1.0,69,0.00,,---,0.20,VWS V14.01,2013-06-03 21:57:00,
2013-06-03 18:02:00,74.5,64.5,29.81,ENE,61,0.0,0.0,71,0.00,,---,0.20,VWS V14.01,2013-06-03 22:02:00,
2013-06-03 18:07:00,74.6,62.9,29.81,ENE,61,0.0,0.0,67,0.00,,---,0.20,VWS V14.01,2013-06-03 22:07:00,
2013-06-03 18:12:00,74.9,64.1,29.81,ENE,61,0.0,0.0,69,0.00,,---,0.20,VWS V14.01,2013-06-03 22:12:00,
2013-06-03 18:17:00,74.8,63.5,29.81,ENE,61,0.0,0.0,68,0.00,,---,0.20,VWS V14.01,2013-06-03 22:17:00,
2013-06-03 18:22:00,74.7,64.3,29.81,ENE,61,0.0,0.0,70,0.00,,---,0.20,VWS V14.01,2013-06-03 22:22:00,
2013-06-03 18:27:00,74.6,64.6,29.81,ENE,61,0.0,0.0,71,0.00,,---,0.20,VWS V14.01,2013-06-03 22:27:00,
2013-06-03 18:32:00,74.5,65.3,29.81,ENE,61,0.0,0.0,73,0.00,,---,0.20,VWS V14.01,2013-06-03 22:32:00,
2013-06-03 18:37:00,74.4,67.1,29.81,ENE,61,0.0,0.0,78,0.00,,---,0.20,VWS V14.01,2013-06-03 22:37:00,
2013-06-03 18:42:00,74.0,66.7,29.81,ENE,61,0.0,0.0,78,0.00,,---,0.20,VWS V14.01,2013-06-03 22:42:00,
2013-06-03 18:47:00,73.3,66.8,29.81,West,276,0.0,0.0,80,0.00,,---,0.20,VWS V14.01,2013-06-03 22:47:00,
2013-06-03 18:52:00,72.9,64.9,29.82,West,276,0.0,0.0,76,0.00,,---,0.20,VWS V14.01,2013-06-03 22:52:00,
2013-06-03 18:57:00,72.8,64.0,29.82,WNW,291,0.0,0.0,74,0.00,,---,0.20,VWS V14.01,2013-06-03 22:57:00,
2013-06-03 19:02:00,72.8,65.6,29.82,WNW,297,0.0,0.0,78,0.00,,---,0.20,VWS V14.01,2013-06-03 23:02:00,
2013-06-03 19:07:00,72.7,63.5,29.82,WNW,303,0.0,0.0,73,0.00,,---,0.20,VWS V14.01,2013-06-03 23:07:00,
2013-06-03 19:12:00,73.0,61.4,29.82,NNW,327,1.0,3.0,67,0.00,,---,0.20,VWS V14.01,2013-06-03 23:12:00,
2013-06-03 19:17:00,73.3,60.8,29.83,NW,319,0.0,3.0,65,0.00,,---,0.20,VWS V14.01,2013-06-03 23:17:00,
2013-06-03 19:22:00,73.5,61.0,29.83,North,352,0.0,3.0,65,0.00,,---,0.20,VWS V14.01,2013-06-03 23:22:00,
2013-06-03 19:27:00,73.5,61.0,29.83,NW,318,2.0,3.0,65,0.00,,---,0.20,VWS V14.01,2013-06-03 23:27:00,
2013-06-03 19:32:00,73.3,61.7,29.83,North,356,2.0,2.0,67,0.00,,---,0.20,VWS V14.01,2013-06-03 23:32:00,
2013-06-03 19:37:00,73.2,61.2,29.83,NNW,347,2.0,3.0,66,0.00,,---,0.20,VWS V14.01,2013-06-03 23:37:00,
2013-06-03 19:42:00,73.2,61.2,29.83,NNW,330,2.0,3.0,66,0.00,,---,0.20,VWS V14.01,2013-06-03 23:42:00,
2013-06-03 19:47:00,73.1,60.7,29.83,North,10,1.0,3.0,65,0.00,,---,0.20,VWS V14.01,2013-06-03 23:47:00,
2013-06-03 19:52:00,73.1,61.1,29.83,NNE,13,1.0,3.0,66,0.00,,---,0.20,VWS V14.01,2013-06-03 23:52:00,
2013-06-03 19:57:00,72.9,60.5,29.83,NNW,343,2.0,3.0,65,0.00,,---,0.20,VWS V14.01,2013-06-03 23:57:00,
2013-06-03 20:02:00,72.8,60.4,29.84,North,349,2.0,4.0,65,0.00,,---,0.20,VWS V14.01,2013-06-04 00:02:00,
2013-06-03 20:07:00,72.6,60.2,29.84,NNE,23,1.0,4.0,65,0.00,,---,0.20,VWS V14.01,2013-06-04 00:07:00,
2013-06-03 20:12:00,72.5,59.6,29.84,North,352,2.0,4.0,64,0.00,,---,0.20,VWS V14.01,2013-06-04 00:12:00,
2013-06-03 20:17:00,72.4,59.5,29.84,North,6,3.0,4.0,64,0.00,,---,0.20,VWS V14.01,2013-06-04 00:17:00,
2013-06-03 20:22:00,72.3,60.3,29.84,NNW,344,3.0,4.0,66,0.00,,---,0.20,VWS V14.01,2013-06-04 00:22:00,
2013-06-03 20:27:00,72.0,59.6,29.84,North,349,2.0,4.0,65,0.00,,---,0.20,VWS V14.01,2013-06-04 00:27:00,
2013-06-03 20:32:00,71.9,59.1,29.84,NNW,327,2.0,3.0,64,0.00,,---,0.20,VWS V14.01,2013-06-04 00:32:00,
2013-06-03 20:37:00,71.8,59.0,29.84,NNW,340,2.0,4.0,64,0.00,,---,0.20,VWS V14.01,2013-06-04 00:37:00,
2013-06-03 20:42:00,71.6,59.2,29.84,North,355,2.0,5.0,65,0.00,,---,0.20,VWS V14.01,2013-06-04 00:42:00,
2013-06-03 20:47:00,71.4,59.0,29.85,North,350,2.0,5.0,65,0.00,,---,0.20,VWS V14.01,2013-06-04 00:47:00,
2013-06-03 20:52:00,71.2,59.3,29.85,NNW,345,2.0,5.0,66,0.00,,---,0.20,VWS V14.01,2013-06-04 00:52:00,
2013-06-03 20:57:00,71.0,58.2,29.85,North,352,5.0,6.0,64,0.00,,---,0.20,VWS V14.01,2013-06-04 00:57:00,
2013-06-03 21:02:00,70.9,58.1,29.85,NNE,14,1.0,3.0,64,0.00,,---,0.20,VWS V14.01,2013-06-04 01:02:00,
2013-06-03 21:07:00,70.7,58.4,29.86,North,6,2.0,6.0,65,0.00,,---,0.20,VWS V14.01,2013-06-04 01:07:00,
2013-06-03 21:12:00,70.5,57.8,29.86,NW,320,2.0,6.0,64,0.00,,---,0.20,VWS V14.01,2013-06-04 01:12:00,
2013-06-03 21:17:00,70.3,57.6,29.86,North,5,3.0,6.0,64,0.00,,---,0.20,VWS V14.01,2013-06-04 01:17:00,
2013-06-03 21:22:00,70.0,57.3,29.86,NNW,338,3.0,6.0,64,0.00,,---,0.20,VWS V14.01,2013-06-04 01:22:00,
2013-06-03 21:27:00,69.8,57.5,29.86,North,350,2.0,6.0,65,0.00,,---,0.20,VWS V14.01,2013-06-04 01:27:00,
2013-06-03 21:32:00,69.6,56.9,29.87,NNW,328,2.0,4.0,64,0.00,,---,0.20,VWS V14.01,2013-06-04 01:32:00,
2013-06-03 21:37:00,69.5,57.2,29.87,NNW,332,5.0,5.0,65,0.00,,---,0.20,VWS V14.01,2013-06-04 01:37:00,
2013-06-03 21:42:00,69.4,56.7,29.87,NW,314,4.0,5.0,64,0.00,,---,0.20,VWS V14.01,2013-06-04 01:42:00,
2013-06-03 21:47:00,69.2,56.1,29.88,NNW,344,2.0,8.0,63,0.00,,---,0.20,VWS V14.01,2013-06-04 01:47:00,
2013-06-03 21:52:00,69.1,56.0,29.87,North,6,1.0,8.0,63,0.00,,---,0.20,VWS V14.01,2013-06-04 01:52:00,
2013-06-03 21:57:00,68.9,55.4,29.88,NNW,345,2.0,8.0,62,0.00,,---,0.20,VWS V14.01,2013-06-04 01:57:00,
2013-06-03 22:02:00,68.8,55.7,29.87,North,352,3.0,3.0,63,0.00,,---,0.20,VWS V14.01,2013-06-04 02:02:00,
2013-06-03 22:07:00,68.6,53.7,29.88,WNW,284,4.0,7.0,59,0.00,,---,0.20,VWS V14.01,2013-06-04 02:07:00,
2013-06-03 22:12:00,68.5,53.6,29.88,NNE,22,2.0,10.0,59,0.00,,---,0.20,VWS V14.01,2013-06-04 02:12:00,
2013-06-03 22:17:00,68.4,52.1,29.88,NNW,343,3.0,10.0,56,0.00,,---,0.20,VWS V14.01,2013-06-04 02:17:00,
2013-06-03 22:22:00,68.2,51.9,29.87,NW,323,4.0,10.0,56,0.00,,---,0.20,VWS V14.01,2013-06-04 02:22:00,
2013-06-03 22:27:00,68.1,51.3,29.88,NNE,21,3.0,10.0,55,0.00,,---,0.20,VWS V14.01,2013-06-04 02:27:00,
2013-06-03 22:32:00,67.9,50.7,29.88,NW,321,2.0,3.0,54,0.00,,---,0.20,VWS V14.01,2013-06-04 02:32:00,
2013-06-03 22:37:00,67.6,50.4,29.88,North,10,3.0,4.0,54,0.00,,---,0.20,VWS V14.01,2013-06-04 02:37:00,
2013-06-03 22:42:00,67.5,50.3,29.88,NNW,342,3.0,6.0,54,0.00,,---,0.20,VWS V14.01,2013-06-04 02:42:00,
2013-06-03 22:47:00,67.3,50.6,29.88,NW,325,2.0,6.0,55,0.00,,---,0.20,VWS V14.01,2013-06-04 02:47:00,
2013-06-03 22:52:00,67.1,50.9,29.88,West,281,2.0,6.0,56,0.00,,---,0.20,VWS V14.01,2013-06-04 02:52:00,
2013-06-03 22:57:00,66.9,51.2,29.88,NNE,14,3.0,7.0,57,0.00,,---,0.20,VWS V14.01,2013-06-04 02:57:00,
2013-06-03 23:02:00,66.7,51.0,29.88,NNE,33,2.0,4.0,57,0.00,,---,0.20,VWS V14.01,2013-06-04 03:02:00,
2013-06-03 23:07:00,66.5,50.8,29.89,NNE,20,3.0,7.0,57,0.00,,---,0.20,VWS V14.01,2013-06-04 03:07:00,
2013-06-03 23:12:00,66.3,50.2,29.89,NNE,16,2.0,9.0,56,0.00,,---,0.20,VWS V14.01,2013-06-04 03:12:00,
2013-06-03 23:17:00,66.1,50.4,29.89,North,354,3.0,9.0,57,0.00,,---,0.20,VWS V14.01,2013-06-04 03:17:00,
2013-06-03 23:22:00,65.8,50.2,29.89,NNE,18,2.0,9.0,57,0.00,,---,0.20,VWS V14.01,2013-06-04 03:22:00,
2013-06-03 23:27:00,65.6,49.0,29.89,North,356,3.0,9.0,55,0.00,,---,0.20,VWS V14.01,2013-06-04 03:27:00,
2013-06-03 23:32:00,65.4,48.8,29.89,NW,323,4.0,5.0,55,0.00,,---,0.20,VWS V14.01,2013-06-04 03:32:00,
2013-06-03 23:37:00,65.3,48.7,29.89,NNW,338,4.0,9.0,55,0.00,,---,0.20,VWS V14.01,2013-06-04 03:37:00,
2013-06-03 23:42:00,65.1,48.1,29.89,NNW,346,5.0,9.0,54,0.00,,---,0.20,VWS V14.01,2013-06-04 03:42:00,
2013-06-03 23:47:00,65.0,48.5,29.90,NW,319,5.0,10.0,55,0.00,,---,0.20,VWS V14.01,2013-06-04 03:47:00,
2013-06-03 23:52:00,64.9,49.3,29.90,NNW,330,3.0,10.0,57,0.00,,---,0.20,VWS V14.01,2013-06-04 03:52:00,
2013-06-03 23:57:00,64.7,47.2,29.90,North,5,5.0,10.0,53,0.00,,---,0.20,VWS V14.01,2013-06-04 03:57:00,